星链-32274 (STARLINK-32274)

导读

STARLINK-32274是美国SpaceX星链计划中的一颗卫星,于2024年8月31日发射升空。星链项目旨在构建全球卫星互联网星座,为全球偏远地区、海洋等网络覆盖薄弱区域提供高速宽带服务。该卫星加入后,进一步扩充了星链星座的在轨卫星规模,提升了星座的服务覆盖能力与网络稳定性,推动全球卫星互联网服务的普及发展。

Basic Information
目录编号:
60922
目录名称:
STARLINK-32274
国际标识:
2024-154V
轨道中心:
EARTH
卫星名称:
星链-32274
卫星全名:
星链-32274 (STARLINK-32274)
卫星状态:
在轨 (已飞行734 天)
发射日期:
2024-08-31 UTC
国别 :
美国 (US)
星等 :
--
Orbit Information
数据来源 国际轨道数据 AOE轨道数据
星历时间 2026-09-04T11:44:01+0800
9小时前
查看轨道信息
2026-08-29T22:00:00+0800
5天前
查看轨道信息
半长轴 6840.856km 6840.856km
偏心率 0.0001506 0.0001516
轨道倾角 53.161° 53.156°
近地点辐角 94.730° 90.479°
升交点赤经 173.843° 199.891°
平近点角 265.388° 72.487°
近地点 461.688km 461.681km
远地点 463.75km 463.757km
周期 93.848分钟 93.848分钟
每日圈数 15.343948 15.34395
Detailed Information
固有亮度:
5
最大亮度:
2.5
卫星平台:
Starlink V1.0
覆盖范围:
全球
运营商:
太空探索技术公司
运营商所在国:
美国
制造商(研发单位):
太空探索技术公司
制造商所在国:
美国
使用方式:
暂无
Satellite Introduction
Starlink 计划是 SpaceX 推出的全球卫星互联网项目,通过发射低轨道卫星,为全球尤其是偏远地区提供高速、低延迟的互联网服务。自 2019 年起,Starlink 已部署数千颗卫星,旨在缩小全球数字鸿沟,推动互联网普及。该项目还为军事、航空等行业提供通信支持,带来广泛经济效益。
2D Orbit Map
3D Orbit Map
Orbit Altitude Analysis Chart
Orbit Inclination Analysis Chart
Orbit Comprehensive Analysis Chart
View Comprehensive Chart
Conjunction Data List
Event ID Objects TCA Miss Dist (km) Collision Risk Probability Collision Risk Index (CRI) Action
CDM_260905-151906-092206-563121
2026-09-05T
15:19:25+0000
0.361 km
远距离
1.491522E-4 高风险 0.78
CDM_260906-195406-092206-287421
2026-09-06T
19:54:48+0000
0.857 km
远距离
3.940456E-5 中风险 0.67
CDM_260905-191306-092206-563121
2026-09-05T
19:13:54+0000
0.758 km
远距离
1.874637E-5 中风险 0.6
CDM_260906-182106-092206-287421
2026-09-06T
18:21:00+0000
1.483 km
极远距离
6.023355E-6 低风险 0.51
CDM_260905-024105-235306-092221
2026-09-05T
02:41:47+0000
2.234 km
极远距离
1.374115E-6 低风险 0.38
CDM_260906-212806-092206-287421
2026-09-06T
21:28:35+0000
2.895 km
极远距离
1.238401E-6 低风险 0.37
CDM_260906-125505-258406-092221
2026-09-06T
12:55:41+0000
2.865 km
极远距离
1.226775E-6 低风险 0.37
CDM_260905-174006-092206-563121
2026-09-05T
17:40:07+0000
1.824 km
极远距离
1.13877E-6 低风险 0.36
CDM_260905-141803-679906-092221
TISAT 1 (36799)
2026-09-05T
14:18:58+0000
2.830 km
极远距离
9.535566E-7 极低风险 0.35
CDM_260905-165306-092206-563121
2026-09-05T
16:53:13+0000
2.267 km
极远距离
7.109209E-7 极低风险 0.32